Edinburg, TX

7:51 AM CST on November 23, 2017 (GMT -0600)
Edinburg

Weather History for KEBG - May, 2013

Change the Weather History Date:

Sunday, May 19, 2013

  Actual Average (KMFE) Record (KMFE)
Temperature  
Mean Temperature 86 °F -  
Max Temperature 94 °F 91 °F 100 °F (2003)
Min Temperature 78 °F 70 °F 60 °F (2009)
Cooling Degree Days 21    
Growing Degree Days 36 (Base 50)    
Moisture  
Dew Point 71 °F    
Average Humidity 65    
Maximum Humidity 83    
Minimum Humidity 39    
Precipitation  
Precipitation 0.00 in - - ()
Sea Level Pressure  
Sea Level Pressure 29.78 in    
Wind  
Wind Speed 14 mph (SE)    
Max Wind Speed 23 mph    
Max Gust Speed 29 mph    
Visibility 6 miles    
Events      
Averages and records for this station are not official NWS values.
T = Trace of Precipitation, MM = Missing Value Source: NWS Daily Summary

Daily Weather History Graph

Daily Weather History Graph

Search for Another Location

Airport or City:

Trip Planner

Search our weather history database for the weather conditions in past years. The results will help you decide how hot, cold, wet, or windy it might be!

Date:

Astronomy

May. 19, 2013 Rise Set
Actual Time 6:43 AM CDT 8:14 PM CDT
Civil Twilight 6:18 AM CDT 8:40 PM CDT
Nautical Twilight 5:48 AM CDT 9:10 PM CDT
Astronomical Twilight 5:16 AM CDT 9:41 PM CDT
Moon 2:51 PM CDT (5/19) 2:33 AM CDT (5/19)
Length of Visible Light 14h 21m
Length of Day
13h 31m
Waxing Gibbous, 65% of the Moon is Illuminated
May 19
Waxing Gibbous
May 24
Full
May 31
Last Quarter
Jun 8
New
Jun 16
First Quarter

Hourly Weather History & Observations

Time (CDT) Temp. Heat Index Dew Point Humidity Pressure Visibility Wind Dir Wind Speed Gust Speed Precip Events Conditions
12:15 AM 79.2 °F - 72.5 °F 80% 29.86 in 7.0 mi SSE 12.7 mph 18.4 mph N/A   Mostly Cloudy
12:35 AM 79.2 °F - 72.5 °F 80% 29.85 in 7.0 mi SSE 13.8 mph - N/A   Mostly Cloudy
12:55 AM 79.2 °F - 72.3 °F 79% 29.83 in 7.0 mi SSE 18.4 mph 23.0 mph N/A   Mostly Cloudy
1:15 AM 79.3 °F - 72.5 °F 79% 29.84 in 7.0 mi SSE 9.2 mph - N/A   Overcast
1:35 AM 79.2 °F - 72.3 °F 79% 29.84 in 5.0 mi SE 8.1 mph - N/A   Haze
1:55 AM 79.2 °F - 72.3 °F 79% 29.83 in 7.0 mi SSE 9.2 mph - N/A   Overcast
2:15 AM 79.2 °F - 72.5 °F 80% 29.82 in 5.0 mi SE 10.4 mph 16.1 mph N/A   Haze
2:35 AM 79.0 °F - 72.1 °F 79% 29.81 in 5.0 mi SE 13.8 mph - N/A   Haze
2:55 AM 79.0 °F - 72.1 °F 79% 29.80 in 5.0 mi SE 12.7 mph - N/A   Haze
3:15 AM 78.8 °F - 72.0 °F 79% 29.81 in 7.0 mi SSE 8.1 mph - N/A   Overcast
3:35 AM 79.0 °F - 72.1 °F 79% 29.81 in 7.0 mi SE 8.1 mph - N/A   Overcast
3:55 AM 79.2 °F - 72.5 °F 80% 29.81 in 5.0 mi SE 10.4 mph - N/A   Haze
4:15 AM 79.3 °F - 72.5 °F 79% 29.81 in 5.0 mi SE 9.2 mph - N/A   Haze
4:35 AM 79.3 °F - 72.5 °F 79% 29.80 in 7.0 mi SE 11.5 mph - N/A   Overcast
4:55 AM 79.7 °F - 72.5 °F 79% 29.80 in 5.0 mi SE 9.2 mph - N/A   Haze
5:15 AM 79.9 °F - 72.5 °F 78% 29.80 in 5.0 mi SE 11.5 mph 17.3 mph N/A   Haze
5:35 AM 79.7 °F - 72.9 °F 80% 29.80 in 5.0 mi SE 11.5 mph - N/A   Haze
5:55 AM 79.2 °F - 73.0 °F 81% 29.79 in 5.0 mi SE 11.5 mph - N/A   Haze
6:15 AM 78.8 °F - 73.2 °F 83% 29.79 in 4.0 mi SE 10.4 mph 17.3 mph N/A   Haze
6:35 AM 78.8 °F - 73.4 °F 83% 29.79 in 4.0 mi SE 12.7 mph - N/A   Haze
7:15 AM 79.2 °F - 73.4 °F 82% 29.81 in 3.0 mi SSE 11.5 mph - N/A   Haze
7:35 AM 79.7 °F - 73.4 °F 81% 29.82 in 3.0 mi SE 13.8 mph 19.6 mph N/A   Haze
7:55 AM 80.2 °F 84.6 °F 73.2 °F 79% 29.82 in 4.0 mi SSE 12.7 mph 17.3 mph N/A   Haze
8:15 AM 80.6 °F 85.0 °F 72.9 °F 77% 29.82 in 3.0 mi SE 15.0 mph 23.0 mph N/A   Haze
8:35 AM 81.5 °F 86.3 °F 72.7 °F 74% 29.82 in 3.0 mi SE 16.1 mph 23.0 mph N/A   Haze
8:55 AM 81.5 °F 86.3 °F 72.5 °F 74% 29.81 in 4.0 mi SE 17.3 mph 23.0 mph N/A   Haze
9:15 AM 81.9 °F 86.8 °F 72.5 °F 73% 29.81 in 4.0 mi SE 18.4 mph 24.2 mph N/A   Haze
9:35 AM 82.8 °F 88.2 °F 72.5 °F 71% 29.81 in 4.0 mi SSE 20.7 mph 25.3 mph N/A   Haze
9:55 AM 83.3 °F 88.7 °F 72.3 °F 69% 29.81 in 4.0 mi SE 21.9 mph 26.5 mph N/A   Haze
10:15 AM 84.4 °F 90.0 °F 72.0 °F 66% 29.82 in 4.0 mi SSE 17.3 mph 26.5 mph N/A   Haze
10:35 AM 85.3 °F 91.1 °F 72.0 °F 64% 29.82 in 4.0 mi SSE 16.1 mph 26.5 mph N/A   Haze
10:55 AM 86.4 °F 92.6 °F 72.0 °F 62% 29.82 in 4.0 mi SSE 18.4 mph 26.5 mph N/A   Haze
11:15 AM 86.5 °F 92.5 °F 71.8 °F 61% 29.82 in 4.0 mi SE 18.4 mph 24.2 mph N/A   Haze
11:35 AM 88.5 °F 94.9 °F 71.4 °F 57% 29.81 in 4.0 mi SSE 15.0 mph 26.5 mph N/A   Haze
11:55 AM 89.1 °F 95.0 °F 71.2 °F 55% 29.81 in 4.0 mi SSE 19.6 mph 27.6 mph N/A   Haze
12:15 PM 89.1 °F 95.0 °F 71.1 °F 55% 29.82 in 4.0 mi SSE 15.0 mph 24.2 mph N/A   Haze
12:35 PM 90.1 °F 96.8 °F 71.2 °F 54% 29.81 in 5.0 mi SSE 19.6 mph - N/A   Haze
12:55 PM 90.9 °F 96.7 °F 70.7 °F 51% 29.80 in 4.0 mi SSE 19.6 mph 25.3 mph N/A   Haze
1:15 PM 91.0 °F 97.1 °F 70.7 °F 51% 29.79 in 5.0 mi SSE 16.1 mph 26.5 mph N/A   Haze
1:35 PM 92.5 °F 99.0 °F 70.7 °F 49% 29.78 in 5.0 mi SSE 18.4 mph 25.3 mph N/A   Haze
2:15 PM 92.7 °F 99.4 °F 70.7 °F 49% 29.76 in 5.0 mi SE 20.7 mph 27.6 mph N/A   Haze
2:35 PM 93.7 °F 99.9 °F 69.8 °F 46% 29.76 in 5.0 mi SSE 20.7 mph 26.5 mph N/A   Haze
2:55 PM 93.2 °F 99.4 °F 70.0 °F 47% 29.75 in 5.0 mi SE 19.6 mph 28.8 mph N/A   Haze
3:15 PM 93.4 °F 99.2 °F 70.0 °F 46% 29.74 in 5.0 mi SE 18.4 mph 26.5 mph N/A   Haze
3:35 PM 93.2 °F 99.4 °F 70.3 °F 47% 29.73 in 5.0 mi SE 20.7 mph 26.5 mph N/A   Haze
3:55 PM 94.1 °F 99.5 °F 69.1 °F 44% 29.73 in 7.0 mi South 19.6 mph 26.5 mph N/A   Clear
4:15 PM 94.1 °F 98.9 °F 68.7 °F 43% 29.72 in 5.0 mi South 16.1 mph 24.2 mph N/A   Haze
4:35 PM 93.6 °F 97.9 °F 67.8 °F 43% 29.72 in 5.0 mi SSE 20.7 mph 27.6 mph N/A   Haze
4:55 PM 93.7 °F 96.2 °F 65.5 °F 39% 29.72 in 5.0 mi SSE 16.1 mph 27.6 mph N/A   Haze
5:15 PM 93.9 °F 97.0 °F 66.2 °F 40% 29.71 in 7.0 mi SE 23.0 mph 27.6 mph N/A   Clear
5:35 PM 92.8 °F 95.2 °F 65.5 °F 40% 29.71 in 7.0 mi SSE 17.3 mph 25.3 mph N/A   Clear
5:55 PM 93.2 °F 95.8 °F 65.7 °F 40% 29.71 in 5.0 mi SSE 17.3 mph 23.0 mph N/A   Haze
6:15 PM 91.6 °F 94.3 °F 66.0 °F 43% 29.71 in 7.0 mi SSE 17.3 mph 23.0 mph N/A   Clear
6:35 PM 90.9 °F 94.0 °F 66.7 °F 45% 29.71 in 7.0 mi SSE 15.0 mph 23.0 mph N/A   Clear
6:55 PM 90.1 °F 92.7 °F 66.4 °F 45% 29.72 in 7.0 mi SSE 19.6 mph 24.2 mph N/A   Clear
7:15 PM 89.2 °F 91.6 °F 66.2 °F 46% 29.72 in 7.0 mi SSE 16.1 mph - N/A   Clear
7:35 PM 88.2 °F 90.6 °F 66.2 °F 48% 29.72 in 7.0 mi SSE 13.8 mph 21.9 mph N/A   Clear
7:55 PM 87.3 °F 89.5 °F 66.2 °F 49% 29.73 in 7.0 mi SSE 12.7 mph 20.7 mph N/A   Clear
8:15 PM 86.4 °F 88.7 °F 66.4 °F 51% 29.74 in 7.0 mi SSE 11.5 mph - N/A   Clear
8:35 PM 85.1 °F 88.2 °F 68.0 °F 56% 29.74 in 10.0 mi SE 11.5 mph 17.3 mph N/A   Clear
8:55 PM 84.2 °F 87.6 °F 68.5 °F 59% 29.75 in 7.0 mi SSE 18.4 mph 24.2 mph N/A   Clear
9:15 PM 83.3 °F 86.9 °F 69.1 °F 62% 29.77 in 7.0 mi SE 11.5 mph 17.3 mph N/A   Clear
9:35 PM 82.4 °F 86.3 °F 69.8 °F 66% 29.77 in 7.0 mi SE 10.4 mph - N/A   Clear
9:55 PM 81.5 °F 85.5 °F 70.9 °F 70% 29.77 in 7.0 mi SE 10.4 mph - N/A   Clear
10:15 PM 80.8 °F 84.9 °F 71.8 °F 74% 29.78 in 7.0 mi SE 15.0 mph 19.6 mph N/A   Clear
10:35 PM 80.2 °F 84.2 °F 72.1 °F 76% 29.79 in 7.0 mi SE 13.8 mph - N/A   Clear
11:15 PM 79.3 °F - 72.5 °F 79% 29.79 in 7.0 mi SE 12.7 mph - N/A   Clear
11:35 PM 79.2 °F - 72.5 °F 80% 29.80 in 7.0 mi SE 11.5 mph - N/A   Clear
11:55 PM 78.8 °F - 72.5 °F 81% 29.80 in 7.0 mi SE 11.5 mph - N/A   Clear